| time (UTC) | temp F | wind direction | speed MPH | gust MPH | rain 1hr in | rain 24hr in | rain mn in | humidity % | barometer mb |
| 20260507103520 | 71 | 207 | 4.0 | 8.0 | 0.00 | 0.00 | 0.00 | 91 | 1015.2 |
| 20260507103043 | 71 | 205 | 5.0 | 8.0 | 0.00 | 0.00 | 0.00 | 91 | 1015.2 |
| 20260507102522 | 71 | 193 | 4.0 | 6.0 | 0.00 | 0.00 | 0.00 | 91 | 1015.2 |
| 20260507102022 | 71 | 205 | 4.0 | 7.0 | 0.00 | 0.00 | 0.00 | 91 | 1015.2 |
| 20260507101540 | 71 | 207 | 4.0 | 7.0 | 0.00 | 0.00 | 0.00 | 91 | 1015.1 |
| 20260507101018 | 71 | 217 | 5.0 | 7.0 | 0.00 | 0.00 | 0.00 | 90 | 1014.9 |
| 20260507100522 | 71 | 210 | 5.0 | 7.0 | 0.00 | 0.00 | 0.00 | 90 | 1014.8 |
| 20260507100040 | 71 | 215 | 5.0 | 7.0 | 0.00 | 0.00 | 0.00 | 91 | 1014.9 |
| 20260507095523 | 71 | 213 | 5.0 | 8.0 | 0.00 | 0.00 | 0.00 | 91 | 1014.6 |
| 20260507095021 | 71 | 221 | 5.0 | 8.0 | 0.00 | 0.00 | 0.00 | 90 | 1014.7 |
| 20260507094541 | 71 | 210 | 5.0 | 8.0 | 0.00 | 0.00 | 0.00 | 90 | 1014.7 |
| 20260507094020 | 71 | 207 | 5.0 | 9.0 | 0.00 | 0.00 | 0.00 | 90 | 1014.6 |
| 20260507093521 | 71 | 199 | 6.0 | 9.0 | 0.00 | 0.00 | 0.00 | 90 | 1014.5 |
| 20260507093049 | 71 | 193 | 6.0 | 8.0 | 0.00 | 0.00 | 0.00 | 90 | 1014.3 |
| 20260507092522 | 71 | 186 | 6.0 | 10.0 | 0.00 | 0.00 | 0.00 | 90 | 1014.2 |
| 20260507092020 | 71 | 190 | 6.0 | 10.0 | 0.00 | 0.00 | 0.00 | 90 | 1014.3 |
| 20260507091546 | 71 | 193 | 7.0 | 10.0 | 0.00 | 0.00 | 0.00 | 89 | 1014.3 |
| 20260507091020 | 71 | 188 | 6.0 | 9.0 | 0.00 | 0.00 | 0.00 | 89 | 1014.4 |
| 20260507090522 | 71 | 188 | 6.0 | 9.0 | 0.00 | 0.00 | 0.00 | 89 | 1014.5 |
| 20260507090041 | 71 | 203 | 6.0 | 8.0 | 0.00 | 0.00 | 0.00 | 88 | 1014.6 |
| 20260507085520 | 71 | 182 | 4.0 | 7.0 | 0.00 | 0.00 | 0.00 | 88 | 1014.4 |
| 20260507085021 | 71 | 182 | 4.0 | 7.0 | 0.00 | 0.00 | 0.00 | 88 | 1014.4 |
| 20260507084537 | 71 | 194 | 3.0 | 5.0 | 0.00 | 0.00 | 0.00 | 88 | 1014.4 |
| 20260507084021 | 71 | 167 | 3.0 | 5.0 | 0.00 | 0.00 | 0.00 | 88 | 1014.5 |
| 20260507083521 | 71 | 178 | 3.0 | 6.0 | 0.00 | 0.00 | 0.00 | 87 | 1014.3 |
| 20260507083036 | 71 | 173 | 3.0 | 6.0 | 0.00 | 0.00 | 0.00 | 87 | 1014.3 |
| 20260507082521 | 71 | 157 | 4.0 | 6.0 | 0.00 | 0.00 | 0.00 | 86 | 1014.3 |
| 20260507082020 | 71 | 160 | 4.0 | 7.0 | 0.00 | 0.00 | 0.00 | 86 | 1014.3 |
| 20260507081547 | 71 | 151 | 3.0 | 7.0 | 0.00 | 0.00 | 0.00 | 86 | 1014.3 |
| 20260507081021 | 71 | 149 | 3.0 | 6.0 | 0.00 | 0.00 | 0.00 | 86 | 1014.2 |
| 20260507080525 | 71 | 144 | 4.0 | 6.0 | 0.00 | 0.00 | 0.00 | 86 | 1014.2 |
| 20260507080044 | 71 | 171 | 3.0 | 7.0 | 0.00 | 0.00 | 0.00 | 85 | 1014.3 |
| 20260507075524 | 71 | 157 | 4.0 | 7.0 | 0.00 | 0.00 | 0.00 | 85 | 1014.2 |
| 20260507075020 | 71 | 168 | 3.0 | 7.0 | 0.00 | 0.00 | 0.00 | 85 | 1014.3 |
| 20260507074557 | 72 | 161 | 4.0 | 7.0 | 0.00 | 0.00 | 0.00 | 85 | 1014.3 |
| 20260507074023 | 72 | 154 | 4.0 | 7.0 | 0.00 | 0.00 | 0.00 | 85 | 1014.2 |
| 20260507073523 | 72 | 155 | 5.0 | 7.0 | 0.00 | 0.00 | 0.00 | 85 | 1014.2 |
| 20260507073036 | 72 | 152 | 4.0 | 7.0 | 0.00 | 0.00 | 0.00 | 84 | 1014.2 |
| 20260507072524 | 72 | 161 | 3.0 | 6.0 | 0.00 | 0.00 | 0.00 | 84 | 1014.3 |
| 20260507072020 | 72 | 156 | 3.0 | 6.0 | 0.00 | 0.00 | 0.00 | 85 | 1014.4 |
| 20260507071543 | 72 | 157 | 2.0 | 7.0 | 0.00 | 0.00 | 0.00 | 84 | 1014.4 |
| 20260507071022 | 72 | 157 | 3.0 | 7.0 | 0.00 | 0.00 | 0.00 | 83 | 1014.5 |
| 20260507070526 | 72 | 155 | 4.0 | 6.0 | 0.00 | 0.00 | 0.00 | 83 | 1014.5 |
| 20260507070042 | 72 | 159 | 3.0 | 6.0 | 0.00 | 0.00 | 0.00 | 83 | 1014.6 |
| 20260507065523 | 72 | 167 | 4.0 | 6.0 | 0.00 | 0.00 | 0.00 | 82 | 1014.6 |
| 20260507065022 | 72 | 161 | 4.0 | 6.0 | 0.00 | 0.00 | 0.00 | 82 | 1014.7 |
| 20260507064540 | 72 | 157 | 4.0 | 6.0 | 0.00 | 0.00 | 0.00 | 82 | 1014.7 |
| 20260507064023 | 73 | 159 | 3.0 | 6.0 | 0.00 | 0.00 | 0.00 | 82 | 1014.9 |
| 20260507063522 | 73 | 164 | 3.0 | 6.0 | 0.00 | 0.00 | 0.00 | 82 | 1014.9 |
| 20260507063040 | 73 | 134 | 3.0 | 5.0 | 0.00 | 0.00 | 0.00 | 81 | 1015.1 |
| 20260507062521 | 73 | 152 | 2.0 | 5.0 | 0.00 | 0.00 | 0.00 | 81 | 1015.1 |
| 20260507062021 | 73 | 157 | 3.0 | 6.0 | 0.00 | 0.00 | 0.00 | 81 | 1015.2 |
| 20260507061544 | 73 | 155 | 3.0 | 6.0 | 0.00 | 0.00 | 0.00 | 80 | 1015.3 |
| 20260507061020 | 73 | 174 | 3.0 | 5.0 | 0.00 | 0.00 | 0.00 | 80 | 1015.3 |
| 20260507060520 | 74 | 156 | 2.0 | 5.0 | 0.00 | 0.00 | 0.00 | 79 | 1015.5 |
| 20260507060508 | 74 | 157 | 2.0 | 5.0 | 0.00 | 0.00 | 0.00 | 79 | 1015.4 |
| 20260507055521 | 74 | 151 | 2.0 | 5.0 | 0.00 | 0.00 | 0.00 | 79 | 1015.3 |
| 20260507055023 | 74 | 148 | 2.0 | 5.0 | 0.00 | 0.00 | 0.00 | 79 | 1015.5 |
| 20260507054557 | 74 | 157 | 2.0 | 8.0 | 0.00 | 0.00 | 0.00 | 79 | 1015.5 |
| 20260507054021 | 74 | 180 | 3.0 | 8.0 | 0.00 | 0.00 | 0.00 | 79 | 1015.4 |
| 20260507053521 | 74 | 166 | 4.0 | 7.0 | 0.00 | 0.00 | 0.00 | 79 | 1015.4 |
| 20260507053043 | 74 | 183 | 4.0 | 6.0 | 0.00 | 0.00 | 0.00 | 79 | 1015.2 |
| 20260507052520 | 74 | 188 | 4.0 | 7.0 | 0.00 | 0.00 | 0.00 | 79 | 1015.4 |
| 20260507052023 | 74 | 188 | 4.0 | 7.0 | 0.00 | 0.00 | 0.00 | 79 | 1015.5 |
| 20260507051540 | 74 | 188 | 4.0 | 6.0 | 0.00 | 0.00 | 0.00 | 78 | 1015.6 |
| 20260507051022 | 74 | 184 | 4.0 | 6.0 | 0.00 | 0.00 | 0.00 | 78 | 1015.6 |
| 20260507050521 | 74 | 193 | 4.0 | 6.0 | 0.00 | 0.00 | 0.00 | 77 | 1015.7 |
| 20260507050039 | 74 | 200 | 3.0 | 5.0 | 0.00 | 0.00 | 0.00 | 78 | 1015.8 |
| 20260507045521 | 74 | 230 | 1.0 | 3.0 | 0.00 | 0.00 | 0.00 | 78 | 1016.0 |
| 20260507045021 | 74 | 0 | 0.0 | 0.0 | 0.00 | 0.00 | 0.00 | 77 | 1016.1 |
| 20260507044548 | 74 | 0 | 0.0 | 3.0 | 0.00 | 0.00 | 0.00 | 76 | 1016.1 |
| 20260507044020 | 74 | 0 | 1.0 | 4.0 | 0.00 | 0.00 | 0.00 | 76 | 1016.2 |
| 20260507043520 | 74 | 264 | 1.0 | 4.0 | 0.00 | 0.00 | 0.00 | 76 | 1016.2 |
| 20260507043044 | 75 | 262 | 2.0 | 5.0 | 0.00 | 0.00 | 0.00 | 76 | 1016.1 |
| 20260507042524 | 75 | 244 | 2.0 | 5.0 | 0.00 | 0.00 | 0.00 | 77 | 1016.1 |
| 20260507042024 | 75 | 238 | 3.0 | 7.0 | 0.00 | 0.00 | 0.00 | 75 | 1016.1 |
| 20260507041542 | 75 | 225 | 3.0 | 7.0 | 0.00 | 0.00 | 0.00 | 76 | 1016.1 |
| 20260507041023 | 75 | 222 | 4.0 | 6.0 | 0.00 | 0.00 | 0.00 | 76 | 1016.0 |
| 20260507040523 | 75 | 200 | 4.0 | 7.0 | 0.00 | 0.00 | 0.00 | 76 | 1016.0 |
| 20260507040044 | 75 | 213 | 3.0 | 8.0 | 0.00 | 0.00 | 0.00 | 75 | 1015.9 |
| 20260507035523 | 75 | 221 | 2.0 | 8.0 | 0.00 | 0.00 | 0.00 | 77 | 1016.0 |
| 20260507035023 | 75 | 258 | 4.0 | 8.0 | 0.00 | 0.00 | 0.00 | 75 | 1016.1 |
| 20260507034535 | 75 | 234 | 1.0 | 12.0 | 0.00 | 0.00 | 0.00 | 75 | 1016.1 |
| 20260507034023 | 75 | 234 | 5.0 | 13.0 | 0.00 | 0.00 | 0.00 | 76 | 1016.2 |
| 20260507033521 | 75 | 200 | 8.0 | 14.0 | 0.00 | 0.00 | 0.00 | 77 | 1016.2 |
| 20260507033046 | 75 | 183 | 7.0 | 15.0 | 0.00 | 0.00 | 0.00 | 76 | 1015.8 |
| 20260507032523 | 74 | 260 | 8.0 | 15.0 | 0.00 | 0.00 | 0.00 | 76 | 1016.0 |
| 20260507032023 | 74 | 265 | 8.0 | 15.0 | 0.00 | 0.00 | 0.00 | 76 | 1016.1 |
| 20260507031555 | 74 | 119 | 2.0 | 9.0 | 0.00 | 0.00 | 0.00 | 75 | 1015.7 |
| 20260507031025 | 75 | 128 | 4.0 | 9.0 | 0.00 | 0.00 | 0.00 | 76 | 1015.5 |
| 20260507030521 | 75 | 121 | 5.0 | 8.0 | 0.00 | 0.00 | 0.00 | 75 | 1015.4 |
| 20260507030052 | 75 | 120 | 5.0 | 9.0 | 0.00 | 0.00 | 0.00 | 74 | 1015.6 |
| 20260507025523 | 75 | 126 | 5.0 | 10.0 | 0.00 | 0.00 | 0.00 | 74 | 1015.5 |
| 20260507025022 | 75 | 126 | 7.0 | 11.0 | 0.00 | 0.00 | 0.00 | 74 | 1015.4 |
| 20260507024544 | 75 | 123 | 7.0 | 11.0 | 0.00 | 0.00 | 0.00 | 73 | 1015.4 |
| 20260507024025 | 75 | 103 | 8.0 | 11.0 | 0.00 | 0.00 | 0.00 | 73 | 1015.4 |
| 20260507023522 | 75 | 122 | 7.0 | 11.0 | 0.00 | 0.00 | 0.00 | 72 | 1015.4 |
| 20260507023038 | 75 | 117 | 8.0 | 13.0 | 0.00 | 0.00 | 0.00 | 72 | 1015.3 |
| 20260507022525 | 75 | 124 | 8.0 | 13.0 | 0.00 | 0.00 | 0.00 | 73 | 1015.3 |
| 20260507022025 | 76 | 112 | 8.0 | 12.0 | 0.00 | 0.00 | 0.00 | 71 | 1015.4 |
| 20260507021543 | 76 | 117 | 8.0 | 12.0 | 0.00 | 0.00 | 0.00 | 72 | 1015.4 |
| 20260507021021 | 76 | 124 | 9.0 | 12.0 | 0.00 | 0.00 | 0.00 | 70 | 1015.4 |
| 20260507020521 | 76 | 128 | 8.0 | 13.0 | 0.00 | 0.00 | 0.00 | 72 | 1015.3 |
| 20260507020044 | 76 | 121 | 8.0 | 13.0 | 0.00 | 0.00 | 0.00 | 70 | 1015.3 |
| 20260507015520 | 76 | 128 | 9.0 | 13.0 | 0.00 | 0.00 | 0.00 | 69 | 1015.3 |
| 20260507015022 | 76 | 121 | 10.0 | 13.0 | 0.00 | 0.00 | 0.00 | 69 | 1015.3 |
| 20260507014548 | 77 | 132 | 9.0 | 14.0 | 0.00 | 0.00 | 0.00 | 69 | 1015.3 |
| 20260507014023 | 77 | 124 | 10.0 | 14.0 | 0.00 | 0.00 | 0.00 | 69 | 1015.5 |
| 20260507013521 | 77 | 126 | 9.0 | 13.0 | 0.00 | 0.00 | 0.00 | 69 | 1015.5 |
| 20260507013044 | 77 | 119 | 9.0 | 13.0 | 0.00 | 0.00 | 0.00 | 68 | 1015.5 |
| 20260507012523 | 77 | 120 | 10.0 | 13.0 | 0.00 | 0.00 | 0.00 | 68 | 1015.6 |
| 20260507012024 | 77 | 130 | 9.0 | 12.0 | 0.00 | 0.00 | 0.00 | 70 | 1015.6 |
| 20260507011541 | 78 | 113 | 9.0 | 12.0 | 0.00 | 0.00 | 0.00 | 68 | 1015.6 |
| 20260507011021 | 78 | 112 | 8.0 | 12.0 | 0.00 | 0.00 | 0.00 | 69 | 1015.5 |
| 20260507010523 | 78 | 122 | 8.0 | 12.0 | 0.00 | 0.00 | 0.00 | 68 | 1015.4 |
| 20260507010038 | 78 | 116 | 8.0 | 11.0 | 0.00 | 0.00 | 0.00 | 67 | 1015.3 |
| 20260507005522 | 78 | 133 | 7.0 | 11.0 | 0.00 | 0.00 | 0.00 | 67 | 1015.5 |
| 20260507005021 | 79 | 121 | 8.0 | 11.0 | 0.00 | 0.00 | 0.00 | 67 | 1015.5 |
| 20260507004542 | 79 | 119 | 7.0 | 11.0 | 0.00 | 0.00 | 0.00 | 66 | 1015.3 |
| 20260507004025 | 79 | 109 | 7.0 | 11.0 | 0.00 | 0.00 | 0.00 | 66 | 1015.3 |
| 20260507003521 | 79 | 117 | 6.0 | 8.0 | 0.00 | 0.00 | 0.00 | 66 | 1015.3 |
| 20260507003043 | 80 | 108 | 6.0 | 9.0 | 0.00 | 0.00 | 0.00 | 65 | 1015.2 |
| 20260507002520 | 80 | 102 | 7.0 | 10.0 | 0.00 | 0.00 | 0.00 | 64 | 1015.2 |
| 20260507002021 | 80 | 113 | 6.0 | 10.0 | 0.00 | 0.00 | 0.00 | 63 | 1015.2 |
| 20260507001543 | 80 | 111 | 7.0 | 13.0 | 0.00 | 0.00 | 0.00 | 63 | 1015.3 |
| 20260507001020 | 81 | 117 | 8.0 | 13.0 | 0.00 | 0.00 | 0.00 | 64 | 1015.2 |
| 20260507000520 | 81 | 116 | 9.0 | 13.0 | 0.00 | 0.00 | 0.00 | 63 | 1015.0 |
| 20260507000043 | 81 | 107 | 10.0 | 15.0 | 0.00 | 0.00 | 0.00 | 62 | 1015.1 |
| 20260506235521 | 81 | 113 | 10.0 | 17.0 | 0.00 | 0.00 | 0.00 | 60 | 1015.1 |
| 20260506235023 | 82 | 129 | 10.0 | 17.0 | 0.00 | 0.00 | 0.00 | 59 | 1014.9 |
| 20260506234542 | 82 | 121 | 11.0 | 17.0 | 0.00 | 0.00 | 0.00 | 59 | 1015.0 |
| 20260506234022 | 82 | 115 | 12.0 | 18.0 | 0.00 | 0.00 | 0.00 | 56 | 1015.1 |
| 20260506233522 | 83 | 117 | 11.0 | 18.0 | 0.00 | 0.00 | 0.00 | 60 | 1015.1 |
| 20260506233046 | 83 | 115 | 13.0 | 17.0 | 0.00 | 0.00 | 0.00 | 57 | 1015.0 |
| 20260506232521 | 83 | 126 | 13.0 | 17.0 | 0.00 | 0.00 | 0.00 | 57 | 1015.0 |
| 20260506232021 | 83 | 125 | 11.0 | 16.0 | 0.00 | 0.00 | 0.00 | 57 | 1015.0 |
| 20260506231543 | 84 | 110 | 12.0 | 16.0 | 0.00 | 0.00 | 0.00 | 58 | 1015.0 |
| 20260506231022 | 84 | 115 | 12.0 | 18.0 | 0.00 | 0.00 | 0.00 | 58 | 1014.9 |
| 20260506230521 | 84 | 110 | 12.0 | 18.0 | 0.00 | 0.00 | 0.00 | 58 | 1015.0 |
| 20260506230043 | 84 | 113 | 13.0 | 16.0 | 0.00 | 0.00 | 0.00 | 56 | 1015.0 |
| 20260506225524 | 85 | 107 | 12.0 | 17.0 | 0.00 | 0.00 | 0.00 | 60 | 1014.9 |
| 20260506225021 | 85 | 123 | 13.0 | 17.0 | 0.00 | 0.00 | 0.00 | 56 | 1015.0 |
| 20260506224540 | 85 | 119 | 10.0 | 17.0 | 0.00 | 0.00 | 0.00 | 58 | 1015.0 |
| 20260506224021 | 85 | 110 | 12.0 | 18.0 | 0.00 | 0.00 | 0.00 | 56 | 1014.9 |
| 20260506223522 | 85 | 121 | 11.0 | 18.0 | 0.00 | 0.00 | 0.00 | 56 | 1015.0 |
| 20260506223036 | 86 | 109 | 11.0 | 16.0 | 0.00 | 0.00 | 0.00 | 58 | 1014.9 |
| 20260506222522 | 86 | 118 | 9.0 | 15.0 | 0.00 | 0.00 | 0.00 | 58 | 1014.9 |
| 20260506222023 | 86 | 85 | 10.0 | 16.0 | 0.00 | 0.00 | 0.00 | 57 | 1014.9 |
| 20260506221544 | 86 | 131 | 11.0 | 16.0 | 0.00 | 0.00 | 0.00 | 54 | 1015.0 |
| 20260506221026 | 86 | 114 | 11.0 | 16.0 | 0.00 | 0.00 | 0.00 | 57 | 1014.9 |
| 20260506220522 | 86 | 113 | 10.0 | 15.0 | 0.00 | 0.00 | 0.00 | 57 | 1014.9 |
| 20260506220046 | 86 | 113 | 10.0 | 16.0 | 0.00 | 0.00 | 0.00 | 58 | 1014.9 |
| 20260506215525 | 86 | 116 | 8.0 | 17.0 | 0.00 | 0.00 | 0.00 | 60 | 1014.9 |
| 20260506215023 | 86 | 132 | 12.0 | 17.0 | 0.00 | 0.00 | 0.00 | 59 | 1015.0 |
| 20260506214542 | 86 | 116 | 11.0 | 18.0 | 0.00 | 0.00 | 0.00 | 57 | 1014.9 |
| 20260506214022 | 87 | 113 | 11.0 | 18.0 | 0.00 | 0.00 | 0.00 | 58 | 1014.9 |
| 20260506213520 | 87 | 130 | 13.0 | 18.0 | 0.00 | 0.00 | 0.00 | 55 | 1014.9 |
| 20260506213042 | 87 | 105 | 12.0 | 16.0 | 0.00 | 0.00 | 0.00 | 55 | 1014.8 |
| 20260506212521 | 88 | 97 | 11.0 | 17.0 | 0.00 | 0.00 | 0.00 | 57 | 1014.8 |
| 20260506212020 | 88 | 108 | 12.0 | 17.0 | 0.00 | 0.00 | 0.00 | 54 | 1014.8 |
| 20260506211542 | 89 | 115 | 12.0 | 17.0 | 0.00 | 0.00 | 0.00 | 54 | 1014.6 |
| 20260506211021 | 91 | 100 | 12.0 | 16.0 | 0.00 | 0.00 | 0.00 | 50 | 1014.7 |
| 20260506210521 | 93 | 115 | 6.0 | 14.0 | 0.00 | 0.00 | 0.00 | 49 | 1014.7 |
| 20260506210039 | 93 | 185 | 1.0 | 3.0 | 0.00 | 0.00 | 0.00 | 42 | 1014.7 |
| 20260506205524 | 93 | 185 | 0.0 | 3.0 | 0.00 | 0.00 | 0.00 | 43 | 1014.6 |
| 20260506205021 | 93 | 0 | 0.0 | 2.0 | 0.00 | 0.00 | 0.00 | 43 | 1014.8 |
| 20260506204549 | 92 | 184 | 1.0 | 2.0 | 0.00 | 0.00 | 0.00 | 42 | 1014.8 |
| 20260506204020 | 92 | 0 | 0.0 | 2.0 | 0.00 | 0.00 | 0.00 | 43 | 1014.7 |
| 20260506203520 | 92 | 0 | 0.0 | 2.0 | 0.00 | 0.00 | 0.00 | 42 | 1014.8 |
| 20260506203042 | 91 | 0 | 0.0 | 2.0 | 0.00 | 0.00 | 0.00 | 45 | 1014.9 |
| 20260506202523 | 90 | 184 | 0.0 | 2.0 | 0.00 | 0.00 | 0.00 | 44 | 1014.9 |
| 20260506202021 | 90 | 0 | 0.0 | 7.0 | 0.00 | 0.00 | 0.00 | 45 | 1015.0 |
| 20260506201542 | 89 | 178 | 1.0 | 8.0 | 0.00 | 0.00 | 0.00 | 45 | 1014.8 |
| 20260506201021 | 89 | 180 | 5.0 | 8.0 | 0.00 | 0.00 | 0.00 | 46 | 1014.9 |
| 20260506200524 | 89 | 154 | 3.0 | 8.0 | 0.00 | 0.00 | 0.00 | 48 | 1014.8 |
| 20260506200041 | 89 | 213 | 5.0 | 8.0 | 0.00 | 0.00 | 0.00 | 45 | 1014.9 |
| 20260506195521 | 90 | 233 | 3.0 | 8.0 | 0.00 | 0.00 | 0.00 | 45 | 1015.0 |
| 20260506195021 | 90 | 233 | 4.0 | 8.0 | 0.00 | 0.00 | 0.00 | 45 | 1014.9 |
| 20260506194537 | 91 | 204 | 4.0 | 7.0 | 0.00 | 0.00 | 0.00 | 45 | 1014.9 |
| 20260506194020 | 90 | 0 | 1.0 | 4.0 | 0.00 | 0.00 | 0.00 | 46 | 1015.1 |
| 20260506193520 | 91 | 221 | 2.0 | 4.0 | 0.00 | 0.00 | 0.00 | 45 | 1015.1 |
| 20260506193044 | 90 | 0 | 0.0 | 4.0 | 0.00 | 0.00 | 0.00 | 45 | 1015.2 |
| 20260506192524 | 89 | 130 | 1.0 | 8.0 | 0.00 | 0.00 | 0.00 | 46 | 1015.2 |
| 20260506192021 | 89 | 130 | 3.0 | 8.0 | 0.00 | 0.00 | 0.00 | 45 | 1015.3 |
| 20260506191542 | 89 | 117 | 2.0 | 4.0 | 0.00 | 0.00 | 0.00 | 46 | 1015.3 |
| 20260506191021 | 90 | 297 | 1.0 | 4.0 | 0.00 | 0.00 | 0.00 | 47 | 1015.4 |
| 20260506190521 | 89 | 223 | 1.0 | 4.0 | 0.00 | 0.00 | 0.00 | 47 | 1015.6 |
| 20260506190041 | 89 | 221 | 2.0 | 4.0 | 0.00 | 0.00 | 0.00 | 46 | 1015.6 |
| 20260506185520 | 89 | 0 | 0.0 | 5.0 | 0.00 | 0.00 | 0.00 | 46 | 1015.8 |
| 20260506185020 | 89 | 118 | 3.0 | 5.0 | 0.00 | 0.00 | 0.00 | 48 | 1015.8 |
| 20260506184539 | 89 | 241 | 2.0 | 5.0 | 0.00 | 0.00 | 0.00 | 48 | 1015.9 |
| 20260506184023 | 88 | 215 | 2.0 | 5.0 | 0.00 | 0.00 | 0.00 | 47 | 1015.9 |
| 20260506183522 | 88 | 198 | 2.0 | 5.0 | 0.00 | 0.00 | 0.00 | 47 | 1016.0 |
| 20260506183045 | 88 | 196 | 2.0 | 5.0 | 0.00 | 0.00 | 0.00 | 50 | 1015.9 |
| 20260506182520 | 88 | 225 | 3.0 | 5.0 | 0.00 | 0.00 | 0.00 | 49 | 1015.9 |
| 20260506182022 | 88 | 228 | 3.0 | 5.0 | 0.00 | 0.00 | 0.00 | 48 | 1016.0 |
| 20260506181541 | 88 | 246 | 1.0 | 4.0 | 0.00 | 0.00 | 0.00 | 48 | 1016.0 |
| 20260506181020 | 88 | 222 | 1.0 | 6.0 | 0.00 | 0.00 | 0.00 | 49 | 1016.0 |
| 20260506180521 | 87 | 223 | 2.0 | 6.0 | 0.00 | 0.00 | 0.00 | 48 | 1016.0 |
| 20260506180048 | 87 | 0 | 0.0 | 5.0 | 0.00 | 0.00 | 0.00 | 50 | 1016.2 |
| 20260506175520 | 87 | 0 | 2.0 | 5.0 | 0.00 | 0.00 | 0.00 | 50 | 1016.2 |
| 20260506175023 | 87 | 225 | 1.0 | 5.0 | 0.00 | 0.00 | 0.00 | 50 | 1016.4 |
| 20260506174544 | 87 | 226 | 1.0 | 6.0 | 0.00 | 0.00 | 0.00 | 51 | 1016.6 |
| 20260506174020 | 86 | 0 | 1.0 | 6.0 | 0.00 | 0.00 | 0.00 | 51 | 1016.5 |
| 20260506173522 | 86 | 228 | 3.0 | 6.0 | 0.00 | 0.00 | 0.00 | 51 | 1016.7 |
| 20260506173040 | 87 | 209 | 2.0 | 4.0 | 0.00 | 0.00 | 0.00 | 51 | 1016.7 |
| 20260506172521 | 87 | 182 | 0.0 | 5.0 | 0.00 | 0.00 | 0.00 | 53 | 1016.7 |
| 20260506172021 | 86 | 142 | 2.0 | 5.0 | 0.00 | 0.00 | 0.00 | 54 | 1016.7 |
| 20260506171547 | 85 | 212 | 2.0 | 4.0 | 0.00 | 0.00 | 0.00 | 55 | 1016.7 |
| 20260506171022 | 85 | 232 | 0.0 | 4.0 | 0.00 | 0.00 | 0.00 | 56 | 1016.7 |
| 20260506170520 | 84 | 0 | 2.0 | 4.0 | 0.00 | 0.00 | 0.00 | 56 | 1016.8 |
| 20260506170056 | 84 | 261 | 1.0 | 5.0 | 0.00 | 0.00 | 0.00 | 56 | 1016.8 |
| 20260506165521 | 84 | 223 | 3.0 | 5.0 | 0.00 | 0.00 | 0.00 | 57 | 1016.9 |
| 20260506165022 | 84 | 211 | 2.0 | 6.0 | 0.00 | 0.00 | 0.00 | 58 | 1017.0 |
| 20260506164541 | 84 | 218 | 3.0 | 6.0 | 0.00 | 0.00 | 0.00 | 57 | 1017.0 |
| 20260506164022 | 83 | 219 | 3.0 | 7.0 | 0.00 | 0.00 | 0.00 | 57 | 1017.1 |
| 20260506163521 | 83 | 209 | 4.0 | 7.0 | 0.00 | 0.00 | 0.00 | 58 | 1017.1 |
| 20260506163100 | 83 | 230 | 3.0 | 7.0 | 0.00 | 0.00 | 0.00 | 60 | 1017.1 |
| 20260506162525 | 83 | 221 | 4.0 | 8.0 | 0.00 | 0.00 | 0.00 | 59 | 1017.2 |
| 20260506162022 | 83 | 186 | 4.0 | 8.0 | 0.00 | 0.00 | 0.00 | 60 | 1017.1 |
| 20260506161535 | 83 | 117 | 5.0 | 8.0 | 0.00 | 0.00 | 0.00 | 62 | 1017.1 |
| 20260506161022 | 83 | 0 | 0.0 | 0.0 | 0.00 | 0.00 | 0.00 | 60 | 1017.1 |
| 20260506160522 | 82 | 0 | 0.0 | 0.0 | 0.00 | 0.00 | 0.00 | 62 | 1017.0 |
| 20260506160034 | 82 | 0 | 0.0 | 0.0 | 0.00 | 0.00 | 0.00 | 61 | 1017.1 |
| 20260506155522 | 82 | 0 | 0.0 | 0.0 | 0.00 | 0.00 | 0.00 | 63 | 1017.1 |
| 20260506155021 | 82 | 0 | 0.0 | 0.0 | 0.00 | 0.00 | 0.00 | 61 | 1017.1 |
| 20260506154605 | 82 | 0 | 0.0 | 0.0 | 0.00 | 0.00 | 0.00 | 59 | 1017.1 |
| 20260506154026 | 82 | 0 | 0.0 | 0.0 | 0.00 | 0.00 | 0.00 | 61 | 1017.2 |
| 20260506153521 | 81 | 0 | 0.0 | 0.0 | 0.00 | 0.00 | 0.00 | 67 | 1017.2 |
| 20260506153050 | 81 | 0 | 0.0 | 0.0 | 0.00 | 0.00 | 0.00 | 61 | 1017.2 |
| 20260506152520 | 81 | 0 | 0.0 | 0.0 | 0.00 | 0.00 | 0.00 | 64 | 1017.1 |
| 20260506152023 | 80 | 0 | 0.0 | 0.0 | 0.00 | 0.00 | 0.00 | 69 | 1017.1 |
| 20260506151540 | 80 | 0 | 0.0 | 0.0 | 0.00 | 0.00 | 0.00 | 69 | 1017.2 |
| 20260506151021 | 80 | 0 | 0.0 | 0.0 | 0.00 | 0.00 | 0.00 | 70 | 1017.3 |
| 20260506150520 | 80 | 0 | 0.0 | 0.0 | 0.00 | 0.00 | 0.00 | 71 | 1017.2 |
| 20260506150040 | 79 | 0 | 0.0 | 0.0 | 0.00 | 0.00 | 0.00 | 72 | 1017.2 |
| 20260506145524 | 79 | 0 | 0.0 | 0.0 | 0.00 | 0.00 | 0.00 | 73 | 1017.3 |
| 20260506145020 | 79 | 0 | 0.0 | 0.0 | 0.00 | 0.00 | 0.00 | 74 | 1017.3 |
| 20260506144542 | 79 | 0 | 0.0 | 0.0 | 0.00 | 0.00 | 0.00 | 75 | 1017.4 |
| 20260506144020 | 78 | 0 | 0.0 | 0.0 | 0.00 | 0.00 | 0.00 | 75 | 1017.2 |
| 20260506143525 | 78 | 0 | 0.0 | 0.0 | 0.00 | 0.00 | 0.00 | 77 | 1017.2 |
| 20260506143056 | 78 | 0 | 0.0 | 0.0 | 0.00 | 0.00 | 0.00 | 79 | 1017.3 |
| 20260506142522 | 78 | 0 | 0.0 | 0.0 | 0.00 | 0.00 | 0.00 | 80 | 1017.3 |
| 20260506142020 | 77 | 0 | 0.0 | 0.0 | 0.00 | 0.00 | 0.00 | 80 | 1017.2 |
| 20260506141543 | 77 | 0 | 0.0 | 0.0 | 0.00 | 0.00 | 0.00 | 82 | 1017.2 |
| 20260506141020 | 77 | 0 | 0.0 | 0.0 | 0.00 | 0.00 | 0.00 | 82 | 1017.3 |
| 20260506140525 | 76 | 0 | 0.0 | 0.0 | 0.00 | 0.00 | 0.00 | 82 | 1017.4 |
| 20260506140041 | 76 | 0 | 0.0 | 0.0 | 0.00 | 0.00 | 0.00 | 83 | 1017.2 |
| 20260506135522 | 76 | 0 | 0.0 | 0.0 | 0.00 | 0.00 | 0.00 | 84 | 1017.2 |
| 20260506135022 | 75 | 0 | 0.0 | 0.0 | 0.00 | 0.00 | 0.00 | 85 | 1017.1 |
| 20260506134536 | 75 | 0 | 0.0 | 0.0 | 0.00 | 0.00 | 0.00 | 87 | 1017.2 |
| 20260506134022 | 74 | 0 | 0.0 | 0.0 | 0.00 | 0.00 | 0.00 | 89 | 1017.2 |
| 20260506133520 | 74 | 0 | 0.0 | 0.0 | 0.00 | 0.00 | 0.00 | 89 | 1017.2 |
| 20260506133037 | 74 | 0 | 0.0 | 0.0 | 0.00 | 0.00 | 0.00 | 90 | 1017.1 |
| 20260506132521 | 73 | 0 | 0.0 | 0.0 | 0.00 | 0.00 | 0.00 | 91 | 1017.2 |
| 20260506132025 | 73 | 0 | 0.0 | 0.0 | 0.00 | 0.00 | 0.00 | 92 | 1017.1 |
| 20260506131542 | 72 | 0 | 0.0 | 0.0 | 0.00 | 0.00 | 0.00 | 93 | 1017.0 |
| 20260506131023 | 71 | 0 | 0.0 | 0.0 | 0.00 | 0.00 | 0.00 | 94 | 1017.0 |
| 20260506130521 | 71 | 0 | 0.0 | 3.0 | 0.00 | 0.00 | 0.00 | 94 | 1016.8 |
| 20260506130040 | 71 | 0 | 0.0 | 5.0 | 0.00 | 0.00 | 0.00 | 95 | 1016.9 |
| 20260506125523 | 70 | 157 | 0.0 | 5.0 | 0.00 | 0.00 | 0.00 | 95 | 1017.0 |
| 20260506125023 | 70 | 157 | 2.0 | 5.0 | 0.00 | 0.00 | 0.00 | 95 | 1016.7 |
| 20260506124540 | 69 | 162 | 1.0 | 4.0 | 0.00 | 0.00 | 0.00 | 96 | 1016.7 |
| 20260506124020 | 69 | 0 | 2.0 | 4.0 | 0.00 | 0.00 | 0.00 | 95 | 1016.5 |
| 20260506123523 | 69 | 139 | 0.0 | 2.0 | 0.00 | 0.00 | 0.00 | 96 | 1016.6 |
| 20260506123040 | 68 | 194 | 1.0 | 2.0 | 0.00 | 0.00 | 0.00 | 96 | 1016.6 |
| 20260506122523 | 68 | 0 | 0.0 | 2.0 | 0.00 | 0.00 | 0.00 | 96 | 1016.5 |
| 20260506122021 | 67 | 0 | 0.0 | 0.0 | 0.00 | 0.00 | 0.00 | 96 | 1016.4 |
| 20260506121541 | 67 | 0 | 0.0 | 0.0 | 0.00 | 0.00 | 0.00 | 96 | 1016.6 |
| 20260506121021 | 67 | 0 | 0.0 | 0.0 | 0.00 | 0.00 | 0.00 | 96 | 1016.7 |
| 20260506120523 | 67 | 0 | 0.0 | 0.0 | 0.00 | 0.00 | 0.00 | 96 | 1016.6 |
| 20260506120052 | 66 | 0 | 0.0 | 0.0 | 0.00 | 0.00 | 0.00 | 96 | 1016.5 |
| 20260506115520 | 66 | 0 | 0.0 | 0.0 | 0.00 | 0.00 | 0.00 | 96 | 1016.6 |
| 20260506115021 | 65 | 0 | 0.0 | 0.0 | 0.00 | 0.00 | 0.00 | 95 | 1016.5 |
| 20260506114547 | 65 | 0 | 0.0 | 0.0 | 0.00 | 0.00 | 0.00 | 96 | 1016.5 |
| 20260506114021 | 65 | 0 | 0.0 | 0.0 | 0.00 | 0.00 | 0.00 | 96 | 1016.4 |
| 20260506113520 | 65 | 0 | 0.0 | 0.0 | 0.00 | 0.00 | 0.00 | 95 | 1016.4 |
| 20260506113040 | 65 | 0 | 0.0 | 1.0 | 0.00 | 0.00 | 0.00 | 95 | 1016.3 |
| 20260506112526 | 64 | 0 | 0.0 | 2.0 | 0.00 | 0.00 | 0.00 | 95 | 1016.3 |
| 20260506112023 | 64 | 0 | 0.0 | 2.0 | 0.00 | 0.00 | 0.00 | 95 | 1016.3 |
| 20260506111539 | 64 | 109 | 0.0 | 2.0 | 0.00 | 0.00 | 0.00 | 95 | 1016.3 |
| 20260506111022 | 64 | 0 | 0.0 | 3.0 | 0.00 | 0.00 | 0.00 | 95 | 1016.2 |
| 20260506110525 | 64 | 0 | 0.0 | 3.0 | 0.00 | 0.00 | 0.00 | 95 | 1016.2 |
| 20260506110036 | 64 | 86 | 1.0 | 3.0 | 0.00 | 0.00 | 0.00 | 95 | 1016.1 |
| 20260506105522 | 63 | 0 | 0.0 | 2.0 | 0.00 | 0.00 | 0.00 | 95 | 1016.1 |
| 20260506105021 | 63 | 0 | 0.0 | 1.0 | 0.00 | 0.00 | 0.00 | 95 | 1016.1 |
| 20260506104543 | 63 | 0 | 0.0 | 2.0 | 0.00 | 0.00 | 0.00 | 94 | 1016.0 |
| 20260506104020 | 63 | 0 | 0.0 | 3.0 | 0.00 | 0.00 | 0.00 | 94 | 1015.9 |